Location: Unspecified
(42.9300°N, 71.1866°W)
Time: 12:58:12
(UTC-04:00)

Cosmos 2058 - Visible Passes

Search period start: 23 May 2018 00:00
Search period end: 02 June 2018 00:00
Orbit: 564 x 584 km, 82.5° (Epoch: 23 May)

Date Brightness Start Highest point End Pass type
(mag) Time Alt. Az. Time Alt. Az. Time Alt. Az.
23 May 3.8 03:24:27 14° SSE 03:27:53 46° E 03:31:57 10° NNE visible
24 May 3.3 03:27:54 17° S 03:31:01 63° E 03:35:12 10° NNE visible
25 May 2.9 03:31:20 20° S 03:34:10 84° E 03:38:25 10° N visible
26 May 2.9 03:34:44 22° SSW 03:37:20 73° W 03:41:34 10° N visible
27 May 5.6 02:02:20 10° ESE 02:04:08 12° E 02:05:55 10° ENE visible
27 May 3.2 03:38:07 23° SSW 03:40:32 54° W 03:44:41 10° N visible
28 May 5.3 02:05:15 13° ESE 02:07:11 16° E 02:09:49 10° NE visible
28 May 3.6 03:41:29 22° SW 03:43:44 40° WNW 03:47:44 10° N visible
29 May 4.9 02:08:35 17° ESE 02:10:14 21° E 02:13:26 10° NE visible
29 May 4.0 03:44:49 20° WSW 03:46:59 31° WNW 03:50:44 10° NNW visible
30 May 4.5 02:11:55 23° ESE 02:13:19 28° E 02:16:55 10° NNE visible
30 May 4.3 03:48:08 17° WSW 03:50:12 24° WNW 03:53:40 10° NNW visible
31 May 4.1 02:15:13 30° SE 02:16:25 36° E 02:20:17 10° NNE visible
31 May 4.7 03:51:26 14° WSW 03:53:28 19° WNW 03:56:28 10° NNW visible
01 Jun 3.6 02:18:30 39° SE 02:19:32 48° E 02:23:36 10° NNE visible
01 Jun 5.0 03:54:43 11° W 03:56:46 15° WNW 03:59:07 10° NW visible
